INTELSAT 5 (IS-5) (24916 NORAD) Tracking and Keplerian Element Data

This shows tracking and keplerian element data for the satellite.

Feedback or suggestion? Click here.




ElementValue
Catalog24916
NameINTELSAT 5 (IS-5)
Epoch Orbit9820
Epoch Day159.97688212
Epoch Year2024
RAAN55.5517
Inclination8.7829
Eccentricity0.0002299
Argument of Perigee66.6951
Mean Anonmoly292.4233
Mean Motion1.00272245
Decay Rate-7E-07
L11 24916U 97046A 24159.97688212 -.00000070 00000+0 00000+0 0 9998
L22 24916 8.7829 55.5517 0002299 66.6951 292.4233 1.00272245 98208



Live tracking and technical data element details for INTELSAT 5 (IS-5) (NORAD 24916). INTELSAT 5 (IS-5) can be tracked NOW for your location showing map with azimuth and elevation plus other details from your city location.







IsCatalogInMostPopularTable: catalog: 24916, numindb: 574
Update: records affected: 1



GetName: 24916 INTELSAT 5 (IS-5)

Hit Count: updated at: Thu, 15 May 2025 20:01:13 GMT